Change the Weather History Date:

Wednesday, April 25, 2012

  Actual Average Record
Temperature  
Mean Temperature 46 °F -  
Max Temperature 51 °F 61 °F 86 °F (1990)
Min Temperature 42 °F 39 °F 28 °F (1972)
Degree Days  
Heating Degree Days 18    
Moisture  
Dew Point 31 °F    
Average Humidity 58    
Maximum Humidity 76    
Minimum Humidity 47    
Precipitation  
Precipitation 0.00 in - - ()
Sea Level Pressure  
Sea Level Pressure 29.72 in    
Wind  
Wind Speed 5 mph (East)    
Max Wind Speed 14 mph    
Max Gust Speed -    
Visibility 10 miles    
Events Rain    
Averages and records for this station are not official NWS values.
T = Trace of Precipitation, MM = Missing Value Source: NWS Daily Summary

Daily Weather History Graph

Daily Weather History Graph

Search for Another Location

Airport or City:

Trip Planner

Search our weather history database for the weather conditions in past years. The results will help you decide how hot, cold, wet, or windy it might be!

Date:

Astronomy

Apr. 25, 2012 Rise Set
Actual Time 5:53 AM CDT 7:51 PM CDT
Civil Twilight 5:22 AM CDT 8:22 PM CDT
Nautical Twilight 4:43 AM CDT 9:01 PM CDT
Astronomical Twilight 4:02 AM CDT 9:43 PM CDT
Moon 8:32 AM CDT (4/25) No Moon Set
Length of Visible Light 15h 00m
Length of Day
13h 57m
Waxing Crescent, 17% of the Moon is Illuminated
Apr 25
Waxing Crescent
Apr 29
First Quarter
May 5
Full
May 12
Last Quarter
May 20
New

Hourly Weather History & Observations

Time (CDT) Temp. Windchill Dew Point Humidity Pressure Visibility Wind Dir Wind Speed Gust Speed Precip Events Conditions
12:15 AM 44.6 °F 42.2 °F 28.4 °F 53% 29.71 in 10.0 mi East 4.6 mph - N/A   Clear
12:35 AM 44.6 °F 42.2 °F 26.6 °F 49% 29.70 in 10.0 mi East 4.6 mph - N/A   Clear
12:55 AM 42.8 °F 41.1 °F 26.6 °F 53% 29.70 in 10.0 mi East 3.5 mph - N/A   Clear
1:15 AM 42.8 °F 40.1 °F 26.6 °F 53% 29.70 in 10.0 mi ENE 4.6 mph - N/A   Clear
1:35 AM 42.8 °F - 26.6 °F 53% 29.70 in 10.0 mi Calm Calm - N/A   Clear
1:55 AM 42.8 °F 40.1 °F 26.6 °F 53% 29.70 in 10.0 mi East 4.6 mph - N/A   Clear
2:15 AM 42.8 °F 40.1 °F 26.6 °F 53% 29.70 in 10.0 mi East 4.6 mph - N/A   Clear
2:35 AM 42.8 °F - 26.6 °F 53% 29.71 in 10.0 mi Calm Calm - N/A   Clear
2:55 AM 42.8 °F - 26.6 °F 53% 29.71 in 10.0 mi Calm Calm - N/A   Mostly Cloudy
3:15 AM 42.8 °F 41.1 °F 26.6 °F 53% 29.72 in 10.0 mi East 3.5 mph - N/A   Scattered Clouds
3:55 AM 42.8 °F - 28.4 °F 57% 29.73 in 10.0 mi Calm Calm - N/A   Overcast
4:35 AM 42.8 °F 39.3 °F 28.4 °F 57% 29.73 in 10.0 mi ENE 5.8 mph - N/A   Scattered Clouds
4:55 AM 42.8 °F 39.3 °F 28.4 °F 57% 29.75 in 10.0 mi ENE 5.8 mph - N/A   Mostly Cloudy
5:20 AM 42.8 °F 39.3 °F 28.4 °F 57% 29.74 in 10.0 mi East 5.8 mph - N/A   Overcast
5:45 AM 44.6 °F 43.1 °F 28.4 °F 53% 29.76 in 10.0 mi Variable 3.5 mph - N/A   Mostly Cloudy
6:45 AM 44.6 °F 42.2 °F 26.6 °F 49% 29.76 in 10.0 mi Variable 4.6 mph - N/A   Mostly Cloudy
7:45 AM 46.4 °F 42.9 °F 30.2 °F 53% 29.75 in 10.0 mi ESE 6.9 mph - N/A   Mostly Cloudy
8:45 AM 48.2 °F - 32.0 °F 54% 29.74 in 10.0 mi ESE 10.4 mph - N/A   Mostly Cloudy
9:52 AM 51.8 °F - 32.0 °F 47% 29.72 in 10.0 mi SE 13.8 mph - N/A   Mostly Cloudy
10:45 AM 51.8 °F - 32.0 °F 47% 29.72 in 10.0 mi SE 13.8 mph - N/A   Overcast
11:45 AM 51.8 °F - 33.8 °F 50% 29.74 in 10.0 mi SSE 10.4 mph - N/A   Overcast
2:45 PM 51.8 °F - 32.0 °F 47% 29.74 in 10.0 mi East 6.9 mph - N/A   Overcast
3:45 PM 51.8 °F - 33.8 °F 50% 29.73 in 10.0 mi East 6.9 mph - N/A   Overcast
4:45 PM 51.8 °F - 33.8 °F 50% 29.72 in 10.0 mi East 8.1 mph - N/A   Overcast
5:45 PM 50.0 °F - 35.6 °F 58% 29.71 in 10.0 mi ESE 5.8 mph - N/A   Overcast
6:45 PM 48.2 °F - 39.2 °F 71% 29.72 in 10.0 mi South 4.6 mph - N/A Rain Light Rain
7:45 PM 46.4 °F 41.9 °F 39.2 °F 76% 29.71 in 10.0 mi ENE 9.2 mph - N/A   Mostly Cloudy
8:45 PM 46.4 °F 42.9 °F 37.4 °F 71% 29.70 in 10.0 mi East 6.9 mph - N/A   Mostly Cloudy
9:45 PM 46.4 °F 44.3 °F 37.4 °F 71% 29.73 in 10.0 mi ESE 4.6 mph - N/A   Overcast
10:45 PM 44.6 °F - 37.4 °F 76% 29.71 in 10.0 mi Calm Calm - N/A   Mostly Cloudy
10:55 PM 44.6 °F - 35.6 °F 71% 29.71 in 10.0 mi Calm Calm - N/A   Mostly Cloudy
11:15 PM 44.6 °F - 35.6 °F 71% 29.71 in 10.0 mi Calm Calm - N/A   Overcast
11:35 PM 44.6 °F - 37.4 °F 76% 29.71 in 10.0 mi Calm Calm - N/A   Overcast
11:55 PM 44.6 °F 43.1 °F 37.4 °F 76% 29.72 in 10.0 mi West 3.5 mph - N/A   Overcast